Regional Weather Roundup
Issued by NWS

Home | Current Version | Previous Version | Graphics & Text | Print | Product List | Glossary Off
Versions: 1 2 3 4 5 6 7 8 9 10 11 12 13 14 15 16 17 18 19 20 21 22 23 24 25 26 27 28 29 30 31 32 33 34 35 36 37 38 39 40 41 42 43 44 45 46 47 48 49 50

000
ASUS43 KMPX 052101
RWRMN
WEATHER ROUNDUP FOR MINNESOTA
NATIONAL WEATHER SERVICE TWIN CITIES/CHANHASSEN MN
400 PM CDT TUE MAY 05 2015


NOTE: "FAIR" INDICATES FEW OR NO CLOUDS BELOW 12,000 FEET WITH NO
SIGNIFICANT WEATHER AND/OR OBSTRUCTIONS TO VISIBILITY. N/A MEANS
CURRENT SKY AND/OR WEATHER CONDITIONS ARE NOT AVAILABLE.

MNZ060>063-068>070-052200-
   Twin Cities Metro

CITY           SKY/WX    TMP DP  RH WIND       PRES   REMARKS
TWIN CITIES    CLOUDY    67  48  50 SE20      30.15F
ST PAUL        CLOUDY    67  45  45 SE14      30.16F
CRYSTAL        CLOUDY    69  45  41 SE13G22   30.13F
BLAINE         PTSUNNY   72  45  37 SE16G22   30.14F
LAKEVILLE      CLOUDY    64  50  59 SE14G22   30.15F
EDEN PRAIRIE   CLOUDY    65  49  56 SE18G25   30.14F
SOUTH ST PAUL  CLOUDY    66  45  46 SE10G17   30.15F
LAKE ELMO      FAIR      68  41  37 SE10G18   30.17F
$$
MNZ001>005-007-008-013>017-022>024-027-028-052200-
   Northwest Minnesota

CITY           SKY/WX    TMP DP  RH WIND       PRES   REMARKS
BEMIDJI        SUNNY     73  26  17 SE14G21   30.09F
HALLOCK        SUNNY     79  -8   3 S18G28    30.01F
ROSEAU         SUNNY     75  16  10 S14G20    30.07F
WARROAD        SUNNY     73  30  20 S10G20    30.08F
THIEF RVR FALL SUNNY     75  19  12 SE13G20   30.05F
CROOKSTON      SUNNY     77  23  13 S16G24    30.03F
FOSSTON        SUNNY     77  21  12 SE12G20   30.06F
DETROIT LAKES  SUNNY     73  28  19 SE18      30.07F
MOORHEAD       SUNNY     75  25  15 SE18G24   30.02F
PARK RAPIDS    SUNNY     76  30  18 SE15G26   30.08F
MAHNOMEN       FAIR      75  25  15 SE15G21   30.06F
$$
MNZ006-009>011-018-025>026-052200-
   North Central Minnesota

CITY           SKY/WX    TMP DP  RH WIND       PRES   REMARKS
BAUDETTE       SUNNY     73  21  14 SE13G21   30.09F
FLAG ISLAND    SUNNY     66  30  26 CALM      30.09F
INTL FALLS     SUNNY     74  21  13 SE12      30.11F
WASKISH        SUNNY     75  30  19 SE10G18   30.10F
BIG FORK       SUNNY     75  25  15 S15G24    30.13S
LONGVILLE      SUNNY     73  28  19 S15       30.12F
GRAND RAPIDS   SUNNY     72  30  21 S18       30.13F
CRANE LAKE     SUNNY     72  10   9 S7        30.16F
ORR            SUNNY     73  12   9 S7G16     30.12F
COOK           SUNNY     72  25  17 S12G17    30.15F
WALKER         FAIR      71  27  19 SE13G21   30.11F
$$
MNZ012-019>021-037-052200-
   Northeast Minnesota

CITY           SKY/WX    TMP DP  RH WIND       PRES   REMARKS
DULUTH         SUNNY     69  29  22 SE12      30.17F
ELY            SUNNY     70  16  12 S14       30.17F
HIBBING        SUNNY     74  27  17 SE16G22   30.14F
EVELETH        SUNNY     72  28  20 SE13G20   30.17F
DULUTH HARBOR    N/A     48  34  57 NE3       30.20F
TWO HARBORS    SUNNY     72  39  30 E10G18    30.17F
SILVER BAY     SUNNY     68  27  21 E10       30.19F
GRAND MARAIS     N/A     52  28  39 NE5       30.23F
G MARAIS ARPRT SUNNY     64  21  19 SE6       30.25F
$$
MNZ029>031-032-039>041-046>048-054>057-064-052200-
   West Central Minnesota

CITY           SKY/WX    TMP DP  RH WIND       PRES   REMARKS
FERGUS FALLS   SUNNY     75  41  29 SE17G26   30.04F
WHEATON        MOSUNNY   72  48  43 SE23G30   30.03F
MORRIS         PTSUNNY   73  50  43 SE29      30.04F
ALEXANDRIA     PTSUNNY   72  45  37 SE23G30   30.08F
ELBOW LAKE     CLOUDY    73  48  41 SE20      30.05F
WADENA         SUNNY     73  43  33 SE13G23   30.08F
GLENWOOD       MOSUNNY   72  46  40 SE20      30.09F
APPLETON       MOSUNNY   72  52  49 SE16G25   30.04F
BENSON         PTSUNNY   73  52  46 S18G30    30.07S
ORTONVILLE     CLOUDY    72  50  46 SE18G26   30.03F
MADISON        PTSUNNY   72  54  53 SE21G26   30.04F
WILLMAR        FAIR      68  54  60 SE23G29   30.11F
$$
MNZ033>034-036-042>043-049>051-058-059-052200-
   Central Minnesota

CITY           SKY/WX    TMP DP  RH WIND       PRES   REMARKS
ST CLOUD       PTSUNNY   71  43  36 S17G30    30.11F
SAUK CENTRE    MOCLDY    73  46  38 SE21G29   30.09F
PAYNESVILLE    CLOUDY    64  50  61 E15G23    30.11S
AITKIN         SUNNY     75  25  15 S15       30.11F
PINE RIVER     SUNNY     72  41  33 SE10G18   30.14F
BRAINERD       SUNNY     72  36  26 SE10G23   30.12F
STAPLES        SUNNY     73  39  29 SE14G21   30.09F
LONG PRAIRIE   FAIR      72  43  35 E14G25    30.10F
LITTLE FALLS   SUNNY     73  37  27 SE13G22   30.11F
LITCHFIELD     LGT RAIN  66  54  63 SE20G30   30.13F
BUFFALO        CLOUDY    67  47  48 SE16G23   30.15S
MAPLE LAKE     CLOUDY    70  51  50 SE13G21   30.14F
$$
MNZ037-044-045-052-053-052200-
   East Central Minnesota

CITY           SKY/WX    TMP DP  RH WIND       PRES   REMARKS
PRINCETON      MOSUNNY   73  41  31 SE15G26   30.13F
MORA           SUNNY     70  34  26 SE12G22   30.16F
CAMBRIDGE      SUNNY     75  50  41 SE12G20   30.12F
RUSH CITY      SUNNY     73  37  27 SE16G22   30.15F
MOOSE LAKE     SUNNY     75  34  22 S8        30.13F
HINCKLEY       FAIR      73  37  27 E10G16    30.14F
CLOQUET        SUNNY     70  25  18 E8        30.16F
MCGREGOR       SUNNY     73  34  23 SE12      30.14F
$$
MNZ071>073-080-081-089-090-097-098-052200-
   Southwest Minnesota

CITY           SKY/WX    TMP DP  RH WIND       PRES   REMARKS
MONTEVIDEO     PTSUNNY   72  55  56 S18       30.07F
GRANITE FALLS  CLOUDY    66  53  63 E16G25    30.09F
CANBY          CLOUDY    70  55  58 SE17G26   30.05F
MARSHALL       CLOUDY    66  52  59 SE16G23   30.06F
REDWOOD FALLS  CLOUDY    65  53  65 SE20G26   30.09F
OLIVIA         PTSUNNY   63  50  63 SE21G26   30.09F
PIPESTONE      CLOUDY    63  55  77 SE15      30.06F
WINDOM         CLOUDY    57  55  94 E15       30.10F
WORTHINGTON    CLOUDY    61  54  77 SE16      30.08F
JACKSON        CLOUDY    59  54  82 SE15      30.11F FOG
TRACY          CLOUDY    64  56  74 SE16      30.08F
SLAYTON        CLOUDY    60  57  92 SE20      30.08F FOG
$$
MNZ065>067-074>077-082>085-091>093-052200-
   South Central Minnesota

CITY           SKY/WX    TMP DP  RH WIND       PRES   REMARKS
MANKATO        CLOUDY    57  54  88 E15       30.14F
NEW ULM        DRIZZLE   59  54  82 SE13      30.12F
ST JAMES       LGT RAIN  57  55  94 E13       30.13S
FAIRMONT       CLOUDY    55  52  88 E13       30.11F
GLENCOE        CLOUDY    63  54  73 E16       30.13F
FARIBAULT      LGT RAIN  61  54  77 E16       30.15F
OWATONNA       LGT RAIN  57  54  88 SE12G18   30.15F
WASECA         CLOUDY    55  52  88 SE14      30.16F
ALBERT LEA     DRIZZLE   54  54 100 E15       30.15F
$$
MNZ078>079-086>088-094>096-052200-
   Southeast Minnesota

CITY           SKY/WX    TMP DP  RH WIND       PRES   REMARKS
ROCHESTER      LGT RAIN  54  51  90 SE16      30.19F FOG
RED WING       CLOUDY    66  46  48 SE14      30.16F
STANTON        CLOUDY    65  50  59 E14G20    30.15F
DODGE CENTER   LGT RAIN  57  52  82 SE16      30.17F
WINONA         CLOUDY    59  50  72 SE9       30.20F
AUSTIN         LGT RAIN  54  52  94 E12G17    30.16F
PRESTON        LGT RAIN  51  49  94 E12       30.19F
$$
ABBREVIATIONS USED IN REMARKS
   TC - TEMPERATURES IN CELSIUS
  WCI - WIND CHILL INDEX
   HX - HEAT INDEX
  VSB - VISIBILITY
$$


USA.gov is the U.S. government's official web portal to all federal, state and local government web resources and services.